Time,TemperatureF,DewpointF,PressureIn,WindDirection,WindDirectionDegrees,WindSpeedMPH,WindSpeedGustMPH,Humidity,HourlyPrecipIn,Conditions,Clouds,dailyrainin,SoftwareType,DateUTC
2013-03-11 00:05:00,54.0,39.1,30.26,WNW,293,0.0,0.9,57,0.00,,,0.00,WUHU216HW,2013-03-11 07:05:00,
2013-03-11 00:10:00,53.6,38.7,30.26,WNW,293,0.0,0.9,57,0.00,,,0.00,WUHU216HW,2013-03-11 07:10:00,
2013-03-11 00:15:00,53.6,39.3,30.25,ENE,68,0.4,0.9,58,0.00,,,0.00,WUHU216HW,2013-03-11 07:15:00,
2013-03-11 00:20:00,53.3,38.9,30.25,ESE,113,0.2,0.9,58,0.00,,,0.00,WUHU216HW,2013-03-11 07:20:00,
2013-03-11 00:25:00,53.1,38.7,30.25,ESE,113,0.0,0.4,58,0.00,,,0.00,WUHU216HW,2013-03-11 07:25:00,
2013-03-11 00:30:00,53.1,38.7,30.25,ESE,113,0.0,0.2,58,0.00,,,0.00,WUHU216HW,2013-03-11 07:30:00,
2013-03-11 00:35:00,52.9,39.0,30.25,NE,45,0.7,1.3,59,0.00,,,0.00,WUHU216HW,2013-03-11 07:35:00,
2013-03-11 00:40:00,52.7,38.8,30.24,NE,45,1.8,1.8,59,0.00,,,0.00,WUHU216HW,2013-03-11 07:40:00,
2013-03-11 00:45:00,52.6,38.6,30.24,East,90,0.7,2.5,59,0.00,,,0.00,WUHU216HW,2013-03-11 07:45:00,
2013-03-11 00:50:00,52.6,38.6,30.24,East,90,0.4,2.5,59,0.00,,,0.00,WUHU216HW,2013-03-11 07:50:00,
2013-03-11 00:55:00,52.6,38.6,30.24,ESE,113,0.4,0.7,59,0.00,,,0.00,WUHU216HW,2013-03-11 07:55:00,
2013-03-11 01:00:00,52.6,38.6,30.24,NE,45,1.1,1.3,59,0.00,,,0.00,WUHU216HW,2013-03-11 08:00:00,
2013-03-11 01:05:00,52.4,38.0,30.24,ENE,68,0.4,2.2,58,0.00,,,0.00,WUHU216HW,2013-03-11 08:05:00,
2013-03-11 01:10:00,52.4,38.0,30.24,NNE,23,0.2,2.2,58,0.00,,,0.00,WUHU216HW,2013-03-11 08:10:00,
2013-03-11 01:15:00,52.2,38.3,30.24,North,0,0.4,0.4,59,0.00,,,0.00,WUHU216HW,2013-03-11 08:15:00,
2013-03-11 01:20:00,52.0,38.1,30.24,ENE,68,0.0,0.4,59,0.00,,,0.00,WUHU216HW,2013-03-11 08:20:00,
2013-03-11 01:25:00,52.0,38.1,30.24,ENE,68,0.0,0.2,59,0.00,,,0.00,WUHU216HW,2013-03-11 08:25:00,
2013-03-11 01:30:00,51.8,37.9,30.24,NW,315,0.9,0.9,59,0.00,,,0.00,WUHU216HW,2013-03-11 08:30:00,
2013-03-11 01:35:00,51.7,38.2,30.24,NW,315,0.4,0.9,60,0.00,,,0.00,WUHU216HW,2013-03-11 08:35:00,
2013-03-11 01:40:00,51.5,38.0,30.24,NW,315,0.0,0.9,60,0.00,,,0.00,WUHU216HW,2013-03-11 08:40:00,
2013-03-11 01:45:00,51.5,38.0,30.24,NE,45,1.6,1.6,60,0.00,,,0.00,WUHU216HW,2013-03-11 08:45:00,
2013-03-11 01:50:00,51.1,37.7,30.24,WNW,293,0.0,1.6,60,0.00,,,0.00,WUHU216HW,2013-03-11 08:50:00,
2013-03-11 01:55:00,50.9,37.5,30.24,West,270,2.0,2.0,60,0.00,,,0.00,WUHU216HW,2013-03-11 08:55:00,
2013-03-11 02:00:00,50.8,37.8,30.24,West,270,0.0,2.0,61,0.00,,,0.00,WUHU216HW,2013-03-11 09:00:00,
2013-03-11 02:05:00,50.8,37.8,30.24,West,270,0.0,1.6,61,0.00,,,0.00,WUHU216HW,2013-03-11 09:05:00,
2013-03-11 02:10:00,50.6,38.0,30.24,East,90,1.1,1.1,62,0.00,,,0.00,WUHU216HW,2013-03-11 09:10:00,
2013-03-11 02:15:00,50.4,37.8,30.24,ENE,68,1.1,1.1,62,0.00,,,0.00,WUHU216HW,2013-03-11 09:15:00,
2013-03-11 02:20:00,50.4,37.8,30.24,ENE,68,0.0,1.1,62,0.00,,,0.00,WUHU216HW,2013-03-11 09:20:00,
2013-03-11 02:25:00,50.2,37.7,30.24,WSW,248,1.1,1.3,62,0.00,,,0.00,WUHU216HW,2013-03-11 09:25:00,
2013-03-11 02:30:00,50.2,38.1,30.24,WSW,248,0.0,1.3,63,0.00,,,0.00,WUHU216HW,2013-03-11 09:30:00,
2013-03-11 02:35:00,50.0,37.9,30.24,WSW,248,0.0,0.9,63,0.00,,,0.00,WUHU216HW,2013-03-11 09:35:00,
2013-03-11 02:40:00,50.0,37.9,30.24,WSW,248,0.0,0.0,63,0.00,,,0.00,WUHU216HW,2013-03-11 09:40:00,
2013-03-11 02:45:00,49.9,37.7,30.24,ENE,68,1.1,1.6,63,0.00,,,0.00,WUHU216HW,2013-03-11 09:45:00,
2013-03-11 02:50:00,49.7,37.5,30.24,ENE,68,0.0,1.6,63,0.00,,,0.00,WUHU216HW,2013-03-11 09:50:00,
2013-03-11 02:55:00,49.7,37.5,30.24,East,90,0.4,0.4,63,0.00,,,0.00,WUHU216HW,2013-03-11 09:55:00,
2013-03-11 03:00:00,49.5,37.8,30.24,ESE,113,0.2,0.7,64,0.00,,,0.00,WUHU216HW,2013-03-11 10:00:00,
2013-03-11 03:05:00,49.3,37.6,30.24,ESE,113,0.7,0.7,64,0.00,,,0.00,WUHU216HW,2013-03-11 10:05:00,
2013-03-11 03:10:00,49.3,37.6,30.24,ENE,68,0.4,0.7,64,0.00,,,0.00,WUHU216HW,2013-03-11 10:10:00,
2013-03-11 03:15:00,49.0,37.3,30.23,North,0,2.0,2.0,64,0.00,,,0.00,WUHU216HW,2013-03-11 10:15:00,
2013-03-11 03:20:00,49.0,37.3,30.23,NNW,338,0.0,2.0,64,0.00,,,0.00,WUHU216HW,2013-03-11 10:20:00,
2013-03-11 03:25:00,49.0,37.3,30.23,North,0,0.2,1.3,64,0.00,,,0.00,WUHU216HW,2013-03-11 10:25:00,
2013-03-11 03:30:00,49.0,37.3,30.23,NNE,23,0.0,1.3,64,0.00,,,0.00,WUHU216HW,2013-03-11 10:30:00,
2013-03-11 03:35:00,49.0,37.3,30.23,SSE,158,0.0,1.3,64,0.00,,,0.00,WUHU216HW,2013-03-11 10:35:00,
2013-03-11 03:40:00,49.0,37.3,30.23,SW,225,0.0,0.2,64,0.00,,,0.00,WUHU216HW,2013-03-11 10:40:00,
2013-03-11 03:45:00,48.8,36.7,30.23,ESE,113,1.1,1.1,63,0.00,,,0.00,WUHU216HW,2013-03-11 10:45:00,
2013-03-11 03:50:00,48.6,36.5,30.22,East,90,0.4,1.1,63,0.00,,,0.00,WUHU216HW,2013-03-11 10:50:00,
2013-03-11 03:55:00,48.6,37.0,30.22,East,90,0.4,1.1,64,0.00,,,0.00,WUHU216HW,2013-03-11 10:55:00,
2013-03-11 04:00:00,48.4,36.8,30.22,ESE,113,0.2,0.7,64,0.00,,,0.00,WUHU216HW,2013-03-11 11:00:00,
2013-03-11 04:05:00,48.2,36.6,30.22,East,90,0.4,0.9,64,0.00,,,0.00,WUHU216HW,2013-03-11 11:05:00,
2013-03-11 04:10:00,48.2,36.6,30.22,East,90,0.0,0.9,64,0.00,,,0.00,WUHU216HW,2013-03-11 11:10:00,
2013-03-11 04:15:00,48.1,36.8,30.22,ESE,113,0.7,0.7,65,0.00,,,0.00,WUHU216HW,2013-03-11 11:15:00,
2013-03-11 04:20:00,47.9,36.6,30.22,SSE,158,0.0,0.7,65,0.00,,,0.00,WUHU216HW,2013-03-11 11:20:00,
2013-03-11 04:25:00,47.9,36.6,30.22,SSE,158,0.0,0.0,65,0.00,,,0.00,WUHU216HW,2013-03-11 11:25:00,
2013-03-11 04:30:00,47.9,37.0,30.22,ESE,113,0.4,0.7,66,0.00,,,0.00,WUHU216HW,2013-03-11 11:30:00,
2013-03-11 04:35:00,47.9,37.0,30.22,ESE,113,0.4,0.7,66,0.00,,,0.00,WUHU216HW,2013-03-11 11:35:00,
2013-03-11 04:40:00,47.7,36.9,30.22,ENE,68,0.9,0.9,66,0.00,,,0.00,WUHU216HW,2013-03-11 11:40:00,
2013-03-11 04:45:00,47.7,36.9,30.22,NE,45,1.8,1.8,66,0.00,,,0.00,WUHU216HW,2013-03-11 11:45:00,
2013-03-11 04:50:00,47.5,37.1,30.21,NE,45,1.3,1.8,67,0.00,,,0.00,WUHU216HW,2013-03-11 11:50:00,
2013-03-11 04:55:00,47.5,37.1,30.21,NE,45,1.8,1.8,67,0.00,,,0.00,WUHU216HW,2013-03-11 11:55:00,
2013-03-11 05:00:00,47.5,37.1,30.21,ENE,68,2.0,3.1,67,0.00,,,0.00,WUHU216HW,2013-03-11 12:00:00,
2013-03-11 05:05:00,47.5,36.7,30.21,SE,135,3.1,4.0,66,0.00,,,0.00,WUHU216HW,2013-03-11 12:05:00,
2013-03-11 05:10:00,47.3,36.6,30.21,ENE,68,2.2,4.0,66,0.00,,,0.00,WUHU216HW,2013-03-11 12:10:00,
2013-03-11 05:15:00,47.3,36.6,30.21,East,90,1.1,3.1,66,0.00,,,0.00,WUHU216HW,2013-03-11 12:15:00,
2013-03-11 05:20:00,47.3,36.6,30.21,ESE,113,2.5,2.5,66,0.00,,,0.00,WUHU216HW,2013-03-11 12:20:00,
2013-03-11 05:25:00,47.3,36.6,30.21,NE,45,2.0,2.7,66,0.00,,,0.00,WUHU216HW,2013-03-11 12:25:00,
2013-03-11 05:30:00,47.3,36.6,30.21,NNE,23,2.0,2.9,66,0.00,,,0.00,WUHU216HW,2013-03-11 12:30:00,
2013-03-11 05:35:00,47.3,36.6,30.21,SE,135,2.2,2.9,66,0.00,,,0.00,WUHU216HW,2013-03-11 12:35:00,
2013-03-11 05:40:00,47.2,36.4,30.22,ENE,68,2.9,2.9,66,0.00,,,0.00,WUHU216HW,2013-03-11 12:40:00,
2013-03-11 05:45:00,47.2,36.4,30.22,NE,45,1.6,2.9,66,0.00,,,0.00,WUHU216HW,2013-03-11 12:45:00,
2013-03-11 05:50:00,47.0,36.2,30.22,ENE,68,1.8,2.9,66,0.00,,,0.00,WUHU216HW,2013-03-11 12:50:00,
2013-03-11 05:55:00,47.0,36.2,30.22,NE,45,2.7,2.7,66,0.00,,,0.00,WUHU216HW,2013-03-11 12:55:00,
2013-03-11 06:00:00,47.0,36.2,30.22,East,90,2.5,2.7,66,0.00,,,0.00,WUHU216HW,2013-03-11 13:00:00,
2013-03-11 06:05:00,47.0,36.2,30.22,NE,45,3.4,3.4,66,0.00,,,0.00,WUHU216HW,2013-03-11 13:05:00,
2013-03-11 06:10:00,47.0,36.2,30.22,SE,135,1.8,3.4,66,0.00,,,0.00,WUHU216HW,2013-03-11 13:10:00,
2013-03-11 06:15:00,46.8,36.0,30.22,ESE,113,1.3,3.4,66,0.00,,,0.00,WUHU216HW,2013-03-11 13:15:00,
2013-03-11 06:20:00,46.8,36.0,30.22,ESE,113,2.2,2.7,66,0.00,,,0.00,WUHU216HW,2013-03-11 13:20:00,
2013-03-11 06:25:00,46.8,36.0,30.22,East,90,1.1,2.2,66,0.00,,,0.00,WUHU216HW,2013-03-11 13:25:00,
2013-03-11 06:30:00,46.6,36.3,30.22,ESE,113,1.8,2.5,67,0.00,,,0.00,WUHU216HW,2013-03-11 13:30:00,
2013-03-11 06:35:00,46.6,35.8,30.22,ESE,113,0.9,2.5,66,0.00,,,0.00,WUHU216HW,2013-03-11 13:35:00,
2013-03-11 06:40:00,46.6,35.8,30.22,East,90,0.9,1.6,66,0.00,,,0.00,WUHU216HW,2013-03-11 13:40:00,
2013-03-11 06:45:00,46.6,35.5,30.22,ENE,68,2.5,2.5,65,0.00,,,0.00,WUHU216HW,2013-03-11 13:45:00,
2013-03-11 06:50:00,46.4,35.3,30.23,NE,45,1.8,2.5,65,0.00,,,0.00,WUHU216HW,2013-03-11 13:50:00,
2013-03-11 06:55:00,46.4,35.3,30.22,ENE,68,2.5,2.5,65,0.00,,,0.00,WUHU216HW,2013-03-11 13:55:00,
2013-03-11 07:00:00,46.4,35.3,30.23,East,90,1.1,2.5,65,0.00,,,0.00,WUHU216HW,2013-03-11 14:00:00,
2013-03-11 07:05:00,46.4,35.3,30.23,NE,45,0.9,2.5,65,0.00,,,0.00,WUHU216HW,2013-03-11 14:05:00,
2013-03-11 07:10:00,46.4,35.3,30.23,ENE,68,2.5,2.5,65,0.00,,,0.00,WUHU216HW,2013-03-11 14:10:00,
2013-03-11 07:15:00,46.4,35.3,30.23,East,90,2.2,2.5,65,0.00,,,0.00,WUHU216HW,2013-03-11 14:15:00,
2013-03-11 07:20:00,46.4,35.3,30.24,East,90,1.1,2.5,65,0.00,,,0.00,WUHU216HW,2013-03-11 14:20:00,
2013-03-11 07:25:00,46.4,35.6,30.24,NW,315,1.1,2.2,66,0.00,,,0.00,WUHU216HW,2013-03-11 14:25:00,
2013-03-11 07:30:00,46.4,35.6,30.23,North,0,0.2,2.2,66,0.00,,,0.00,WUHU216HW,2013-03-11 14:30:00,
2013-03-11 07:35:00,46.3,35.5,30.23,NNE,23,0.9,2.0,66,0.00,,,0.00,WUHU216HW,2013-03-11 14:35:00,
2013-03-11 07:40:00,46.3,35.9,30.23,East,90,2.0,2.0,67,0.00,,,0.00,WUHU216HW,2013-03-11 14:40:00,
2013-03-11 07:45:00,46.1,36.1,30.23,ENE,68,1.1,3.4,68,0.00,,,0.00,WUHU216HW,2013-03-11 14:45:00,
2013-03-11 07:50:00,45.9,35.6,30.23,East,90,3.8,3.8,67,0.00,,,0.00,WUHU216HW,2013-03-11 14:50:00,
2013-03-11 07:55:00,45.7,35.7,30.23,East,90,2.7,4.9,68,0.00,,,0.00,WUHU216HW,2013-03-11 14:55:00,
2013-03-11 08:00:00,45.7,35.7,30.23,SE,135,3.8,4.9,68,0.00,,,0.00,WUHU216HW,2013-03-11 15:00:00,
2013-03-11 08:05:00,45.7,35.7,30.23,ESE,113,4.7,4.7,68,0.00,,,0.00,WUHU216HW,2013-03-11 15:05:00,
2013-03-11 08:10:00,45.7,35.7,30.23,ENE,68,3.6,4.7,68,0.00,,,0.00,WUHU216HW,2013-03-11 15:10:00,
2013-03-11 08:15:00,45.7,35.7,30.24,East,90,2.9,4.3,68,0.00,,,0.00,WUHU216HW,2013-03-11 15:15:00,
2013-03-11 08:20:00,45.9,35.9,30.24,NE,45,1.3,3.6,68,0.00,,,0.00,WUHU216HW,2013-03-11 15:20:00,
2013-03-11 08:25:00,46.1,36.1,30.24,North,0,3.6,4.5,68,0.00,,,0.00,WUHU216HW,2013-03-11 15:25:00,
2013-03-11 08:30:00,46.4,36.5,30.24,WSW,248,0.4,4.5,68,0.00,,,0.00,WUHU216HW,2013-03-11 15:30:00,
2013-03-11 08:35:00,46.4,36.5,30.24,North,0,0.7,3.6,68,0.00,,,0.00,WUHU216HW,2013-03-11 15:35:00,
2013-03-11 08:40:00,46.6,36.6,30.24,ENE,68,0.0,1.6,68,0.00,,,0.00,WUHU216HW,2013-03-11 15:40:00,
2013-03-11 08:45:00,46.8,37.2,30.24,WNW,293,0.0,1.6,69,0.00,,,0.00,WUHU216HW,2013-03-11 15:45:00,
2013-03-11 08:50:00,47.0,37.4,30.24,NW,315,0.0,0.9,69,0.00,,,0.00,WUHU216HW,2013-03-11 15:50:00,
2013-03-11 08:55:00,47.0,37.0,30.24,NW,315,0.0,0.4,68,0.00,,,0.00,WUHU216HW,2013-03-11 15:55:00,
2013-03-11 09:00:00,47.2,37.5,30.24,NW,315,0.7,0.7,69,0.00,,,0.00,WUHU216HW,2013-03-11 16:00:00,
2013-03-11 09:05:00,47.3,38.1,30.24,ENE,68,2.2,2.2,70,0.00,,,0.00,WUHU216HW,2013-03-11 16:05:00,
2013-03-11 09:10:00,47.9,38.5,30.24,East,90,1.8,2.2,70,0.00,,,0.00,WUHU216HW,2013-03-11 16:10:00,
2013-03-11 09:16:00,48.1,38.7,30.24,ESE,113,0.9,1.8,70,0.00,,,0.00,WUHU216HW,2013-03-11 16:16:00,
2013-03-11 09:21:00,48.6,39.2,30.24,ENE,68,1.3,2.5,70,0.00,,,0.00,WUHU216HW,2013-03-11 16:21:00,
2013-03-11 09:26:00,48.8,39.1,30.24,East,90,1.8,2.5,69,0.00,,,0.00,WUHU216HW,2013-03-11 16:26:00,
2013-03-11 09:31:00,49.1,39.4,30.24,ENE,68,0.0,2.5,69,0.00,,,0.00,WUHU216HW,2013-03-11 16:31:00,
2013-03-11 09:36:00,49.3,39.6,30.24,NNE,23,1.8,1.8,69,0.00,,,0.00,WUHU216HW,2013-03-11 16:36:00,
2013-03-11 09:41:00,49.7,40.0,30.24,ESE,113,1.6,1.8,69,0.00,,,0.00,WUHU216HW,2013-03-11 16:41:00,
2013-03-11 09:46:00,50.0,39.9,30.24,ENE,68,3.6,3.6,68,0.00,,,0.00,WUHU216HW,2013-03-11 16:46:00,
2013-03-11 09:51:00,50.2,40.1,30.24,East,90,1.1,3.6,68,0.00,,,0.00,WUHU216HW,2013-03-11 16:51:00,
2013-03-11 09:56:00,50.6,40.4,30.24,ENE,68,1.1,3.6,68,0.00,,,0.00,WUHU216HW,2013-03-11 16:56:00,
2013-03-11 10:01:00,50.8,40.6,30.24,ESE,113,1.1,1.8,68,0.00,,,0.00,WUHU216HW,2013-03-11 17:01:00,
2013-03-11 10:06:00,51.3,41.1,30.24,ESE,113,0.0,1.1,68,0.00,,,0.00,WUHU216HW,2013-03-11 17:06:00,
2013-03-11 10:11:00,51.5,41.3,30.24,SW,225,0.7,0.7,68,0.00,,,0.00,WUHU216HW,2013-03-11 17:11:00,
2013-03-11 10:16:00,51.8,41.7,30.24,South,180,1.6,1.6,68,0.00,,,0.00,WUHU216HW,2013-03-11 17:16:00,
2013-03-11 10:21:00,52.4,41.8,30.24,WSW,248,1.8,1.8,67,0.00,,,0.00,WUHU216HW,2013-03-11 17:21:00,
2013-03-11 10:26:00,52.9,41.9,30.24,South,180,0.2,1.8,66,0.00,,,0.00,WUHU216HW,2013-03-11 17:26:00,
2013-03-11 10:31:00,52.9,41.9,30.24,ESE,113,0.4,1.3,66,0.00,,,0.00,WUHU216HW,2013-03-11 17:31:00,
2013-03-11 10:36:00,53.6,42.5,30.24,WNW,293,2.5,3.1,66,0.00,,,0.00,WUHU216HW,2013-03-11 17:36:00,
2013-03-11 10:41:00,54.0,42.5,30.23,West,270,2.5,3.1,65,0.00,,,0.00,WUHU216HW,2013-03-11 17:41:00,
2013-03-11 10:46:00,54.7,43.1,30.24,SW,225,1.1,2.5,65,0.00,,,0.00,WUHU216HW,2013-03-11 17:46:00,
2013-03-11 10:51:00,55.1,43.5,30.23,SSW,203,0.4,2.5,65,0.00,,,0.00,WUHU216HW,2013-03-11 17:51:00,
2013-03-11 10:56:00,55.1,43.1,30.24,WSW,248,1.6,1.6,64,0.00,,,0.00,WUHU216HW,2013-03-11 17:56:00,
2013-03-11 11:01:00,55.6,43.6,30.24,West,270,4.7,4.7,64,0.00,,,0.00,WUHU216HW,2013-03-11 18:01:00,
2013-03-11 11:06:00,56.0,43.6,30.23,NNW,338,1.1,4.7,63,0.00,,,0.00,WUHU216HW,2013-03-11 18:06:00,
2013-03-11 11:11:00,56.3,43.0,30.23,West,270,0.4,4.7,61,0.00,,,0.00,WUHU216HW,2013-03-11 18:11:00,
2013-03-11 11:16:00,56.7,43.4,30.23,West,270,1.6,2.5,61,0.00,,,0.00,WUHU216HW,2013-03-11 18:16:00,
2013-03-11 11:21:00,57.1,42.9,30.23,NW,315,1.3,2.2,59,0.00,,,0.00,WUHU216HW,2013-03-11 18:21:00,
2013-03-11 11:26:00,57.2,43.1,30.23,WSW,248,0.7,2.2,59,0.00,,,0.00,WUHU216HW,2013-03-11 18:26:00,
2013-03-11 11:32:00,58.0,43.7,30.23,SW,225,4.7,4.7,59,0.00,,,0.00,WUHU216HW,2013-03-11 18:32:00,
2013-03-11 11:37:00,58.3,43.6,30.23,NW,315,5.4,5.4,58,0.00,,,0.00,WUHU216HW,2013-03-11 18:37:00,
2013-03-11 11:42:00,58.7,43.9,30.23,SW,225,4.9,5.4,58,0.00,,,0.00,WUHU216HW,2013-03-11 18:42:00,
2013-03-11 11:47:00,58.9,43.1,30.23,West,270,3.4,5.4,56,0.00,,,0.00,WUHU216HW,2013-03-11 18:47:00,
2013-03-11 11:52:00,59.4,44.1,30.23,WNW,293,2.7,4.9,57,0.00,,,0.00,WUHU216HW,2013-03-11 18:52:00,
2013-03-11 11:57:00,59.9,44.6,30.22,WSW,248,2.9,4.0,57,0.00,,,0.00,WUHU216HW,2013-03-11 18:57:00,
2013-03-11 12:02:00,60.1,44.4,30.22,NW,315,2.2,4.0,56,0.00,,,0.00,WUHU216HW,2013-03-11 19:02:00,
2013-03-11 12:07:00,60.7,44.8,30.22,WSW,248,4.0,4.0,56,0.00,,,0.00,WUHU216HW,2013-03-11 19:07:00,
2013-03-11 12:12:00,60.8,45.6,30.22,NW,315,3.6,4.0,57,0.00,,,0.00,WUHU216HW,2013-03-11 19:12:00,
2013-03-11 12:17:00,61.2,45.8,30.22,WNW,293,2.9,4.0,57,0.00,,,0.00,WUHU216HW,2013-03-11 19:17:00,
2013-03-11 12:22:00,61.9,46.5,30.21,NW,315,1.8,4.7,57,0.00,,,0.00,WUHU216HW,2013-03-11 19:22:00,
2013-03-11 12:27:00,62.1,46.6,30.21,West,270,0.4,4.7,57,0.00,,,0.00,WUHU216HW,2013-03-11 19:27:00,
2013-03-11 12:32:00,62.1,46.6,30.21,WSW,248,2.7,3.1,57,0.00,,,0.00,WUHU216HW,2013-03-11 19:32:00,
2013-03-11 12:37:00,62.5,47.4,30.21,West,270,3.8,3.8,58,0.00,,,0.00,WUHU216HW,2013-03-11 19:37:00,
2013-03-11 12:42:00,63.0,48.0,30.21,West,270,2.9,3.8,58,0.00,,,0.00,WUHU216HW,2013-03-11 19:42:00,
2013-03-11 12:47:00,63.2,48.2,30.21,NW,315,3.4,3.4,58,0.00,,,0.00,WUHU216HW,2013-03-11 19:47:00,
2013-03-11 12:52:00,63.5,48.4,30.21,WNW,293,2.5,4.7,58,0.00,,,0.00,WUHU216HW,2013-03-11 19:52:00,
2013-03-11 12:57:00,64.4,49.8,30.20,SSW,203,3.4,4.7,59,0.00,,,0.00,WUHU216HW,2013-03-11 19:57:00,
2013-03-11 13:02:00,65.5,49.9,30.20,SSE,158,2.0,4.0,57,0.00,,,0.00,WUHU216HW,2013-03-11 20:02:00,
2013-03-11 13:07:00,66.2,49.6,30.20,SSW,203,3.6,4.5,55,0.00,,,0.00,WUHU216HW,2013-03-11 20:07:00,
2013-03-11 13:12:00,67.1,50.4,30.19,WSW,248,0.4,4.5,55,0.00,,,0.00,WUHU216HW,2013-03-11 20:12:00,
2013-03-11 13:17:00,67.5,50.2,30.19,WSW,248,2.5,3.6,54,0.00,,,0.00,WUHU216HW,2013-03-11 20:17:00,
2013-03-11 13:22:00,68.0,50.2,30.19,SE,135,1.8,2.5,53,0.00,,,0.00,WUHU216HW,2013-03-11 20:22:00,
2013-03-11 13:27:00,68.2,50.4,30.19,SSW,203,2.7,2.7,53,0.00,,,0.00,WUHU216HW,2013-03-11 20:27:00,
2013-03-11 13:32:00,68.9,50.6,30.18,ENE,68,1.1,2.7,52,0.00,,,0.00,WUHU216HW,2013-03-11 20:32:00,
2013-03-11 13:37:00,68.8,50.0,30.18,North,0,2.7,2.7,51,0.00,,,0.00,WUHU216HW,2013-03-11 20:37:00,
2013-03-11 13:42:00,68.8,50.4,30.18,West,270,2.7,3.6,52,0.00,,,0.00,WUHU216HW,2013-03-11 20:42:00,
2013-03-11 13:47:00,68.9,50.1,30.17,WSW,248,2.7,3.6,51,0.00,,,0.00,WUHU216HW,2013-03-11 20:47:00,
2013-03-11 13:52:00,68.9,50.1,30.17,North,0,1.8,2.7,51,0.00,,,0.00,WUHU216HW,2013-03-11 20:52:00,
2013-03-11 13:57:00,69.1,49.8,30.16,NW,315,1.8,2.7,50,0.00,,,0.00,WUHU216HW,2013-03-11 20:57:00,
2013-03-11 14:02:00,69.3,50.0,30.16,WNW,293,3.4,3.4,50,0.00,,,0.00,WUHU216HW,2013-03-11 21:02:00,
2013-03-11 14:07:00,69.5,50.0,30.16,SW,225,3.1,3.4,50,0.00,,,0.00,WUHU216HW,2013-03-11 21:07:00,
2013-03-11 14:12:00,69.5,50.6,30.16,NW,315,2.7,3.4,51,0.00,,,0.00,WUHU216HW,2013-03-11 21:12:00,
2013-03-11 14:17:00,69.8,50.4,30.16,NW,315,2.2,3.1,50,0.00,,,0.00,WUHU216HW,2013-03-11 21:17:00,
2013-03-11 14:22:00,70.2,51.8,30.16,West,270,6.5,6.5,52,0.00,,,0.00,WUHU216HW,2013-03-11 21:22:00,
2013-03-11 14:27:00,70.2,51.8,30.16,WSW,248,4.7,6.5,52,0.00,,,0.00,WUHU216HW,2013-03-11 21:27:00,
2013-03-11 14:32:00,70.2,51.8,30.16,WNW,293,6.7,8.7,52,0.00,,,0.00,WUHU216HW,2013-03-11 21:32:00,
2013-03-11 14:37:00,70.0,51.6,30.16,NW,315,7.6,8.7,52,0.00,,,0.00,WUHU216HW,2013-03-11 21:37:00,
2013-03-11 14:43:00,70.0,51.0,30.15,WNW,293,5.6,7.6,51,0.00,,,0.00,WUHU216HW,2013-03-11 21:43:00,
2013-03-11 14:48:00,69.8,51.0,30.15,WNW,293,3.8,7.6,51,0.00,,,0.00,WUHU216HW,2013-03-11 21:48:00,
2013-03-11 14:53:00,70.0,51.0,30.15,West,270,6.0,6.0,51,0.00,,,0.00,WUHU216HW,2013-03-11 21:53:00,
2013-03-11 14:58:00,70.2,51.2,30.15,WNW,293,6.3,6.3,51,0.00,,,0.00,WUHU216HW,2013-03-11 21:58:00,
2013-03-11 15:03:00,70.2,50.8,30.15,NW,315,3.6,10.1,50,0.00,,,0.00,WUHU216HW,2013-03-11 22:03:00,
2013-03-11 15:08:00,70.4,50.3,30.14,West,270,6.7,10.1,49,0.00,,,0.00,WUHU216HW,2013-03-11 22:08:00,
2013-03-11 15:13:00,70.4,49.7,30.15,West,270,7.4,7.6,48,0.00,,,0.00,WUHU216HW,2013-03-11 22:13:00,
2013-03-11 15:18:00,70.4,49.2,30.15,WNW,293,5.4,7.6,47,0.00,,,0.00,WUHU216HW,2013-03-11 22:18:00,
2013-03-11 15:23:00,70.2,48.3,30.14,West,270,6.9,6.9,46,0.00,,,0.00,WUHU216HW,2013-03-11 22:23:00,
2013-03-11 15:28:00,70.2,47.8,30.14,NNW,338,6.9,6.9,45,0.00,,,0.00,WUHU216HW,2013-03-11 22:28:00,
2013-03-11 15:33:00,70.4,47.9,30.14,WSW,248,4.7,6.9,45,0.00,,,0.00,WUHU216HW,2013-03-11 22:33:00,
2013-03-11 15:38:00,70.6,48.1,30.14,NNW,338,5.1,8.7,45,0.00,,,0.00,WUHU216HW,2013-03-11 22:38:00,
2013-03-11 15:43:00,70.4,48.5,30.14,West,270,5.4,8.7,46,0.00,,,0.00,WUHU216HW,2013-03-11 22:43:00,
2013-03-11 15:48:00,70.4,47.9,30.14,WSW,248,4.3,8.3,45,0.00,,,0.00,WUHU216HW,2013-03-11 22:48:00,
2013-03-11 15:53:00,70.6,48.1,30.14,WNW,293,4.5,5.4,45,0.00,,,0.00,WUHU216HW,2013-03-11 22:53:00,
2013-03-11 15:58:00,70.7,47.6,30.13,West,270,4.9,4.9,44,0.00,,,0.00,WUHU216HW,2013-03-11 22:58:00,
2013-03-11 16:03:00,70.7,47.6,30.14,NW,315,4.5,4.9,44,0.00,,,0.00,WUHU216HW,2013-03-11 23:03:00,
2013-03-11 16:08:00,70.9,47.3,30.13,West,270,3.4,5.6,43,0.00,,,0.00,WUHU216HW,2013-03-11 23:08:00,
2013-03-11 16:13:00,70.9,47.3,30.13,NW,315,2.5,5.6,43,0.00,,,0.00,WUHU216HW,2013-03-11 23:13:00,
2013-03-11 16:18:00,70.9,46.6,30.13,NW,315,5.4,8.5,42,0.00,,,0.00,WUHU216HW,2013-03-11 23:18:00,
2013-03-11 16:23:00,71.1,47.3,30.13,NW,315,6.0,8.5,43,0.00,,,0.00,WUHU216HW,2013-03-11 23:23:00,
2013-03-11 16:28:00,71.1,46.8,30.13,West,270,6.0,6.0,42,0.00,,,0.00,WUHU216HW,2013-03-11 23:28:00,
2013-03-11 16:33:00,70.9,46.6,30.13,West,270,8.1,8.1,42,0.00,,,0.00,WUHU216HW,2013-03-11 23:33:00,
2013-03-11 16:38:00,70.9,46.6,30.13,WSW,248,7.4,8.1,42,0.00,,,0.00,WUHU216HW,2013-03-11 23:38:00,
2013-03-11 16:43:00,70.7,47.1,30.13,WNW,293,5.4,8.9,43,0.00,,,0.00,WUHU216HW,2013-03-11 23:43:00,
2013-03-11 16:48:00,70.7,47.6,30.13,West,270,3.8,8.9,44,0.00,,,0.00,WUHU216HW,2013-03-11 23:48:00,
2013-03-11 16:53:00,70.7,48.2,30.13,West,270,4.5,6.3,45,0.00,,,0.00,WUHU216HW,2013-03-11 23:53:00,
2013-03-11 16:58:00,70.6,47.5,30.13,NW,315,7.6,7.6,44,0.00,,,0.00,WUHU216HW,2013-03-11 23:58:00,
2013-03-11 17:03:00,70.4,46.7,30.13,NW,315,5.6,9.8,43,0.00,,,0.00,WUHU216HW,2013-03-12 00:03:00,
2013-03-11 17:08:00,70.4,46.7,30.13,West,270,10.5,10.5,43,0.00,,,0.00,WUHU216HW,2013-03-12 00:08:00,
2013-03-11 17:13:00,70.2,46.0,30.13,West,270,8.7,10.5,42,0.00,,,0.00,WUHU216HW,2013-03-12 00:13:00,
2013-03-11 17:18:00,70.0,45.8,30.12,West,270,7.6,8.7,42,0.00,,,0.00,WUHU216HW,2013-03-12 00:18:00,
2013-03-11 17:23:00,69.8,45.6,30.12,West,270,8.7,8.7,42,0.00,,,0.00,WUHU216HW,2013-03-12 00:23:00,
2013-03-11 17:28:00,70.0,45.8,30.12,NW,315,6.9,8.7,42,0.00,,,0.00,WUHU216HW,2013-03-12 00:28:00,
2013-03-11 17:33:00,69.8,45.6,30.12,NW,315,6.3,8.7,42,0.00,,,0.00,WUHU216HW,2013-03-12 00:33:00,
2013-03-11 17:38:00,69.8,45.6,30.12,West,270,6.3,6.9,42,0.00,,,0.00,WUHU216HW,2013-03-12 00:38:00,
2013-03-11 17:43:00,69.8,46.3,30.11,NNW,338,6.7,6.7,43,0.00,,,0.00,WUHU216HW,2013-03-12 00:43:00,
2013-03-11 17:48:00,69.7,46.1,30.11,WNW,293,1.8,6.7,43,0.00,,,0.00,WUHU216HW,2013-03-12 00:48:00,
2013-03-11 17:53:00,69.7,46.1,30.11,SW,225,2.9,5.6,43,0.00,,,0.00,WUHU216HW,2013-03-12 00:53:00,
2013-03-11 17:58:00,69.7,45.5,30.11,WSW,248,4.3,5.6,42,0.00,,,0.00,WUHU216HW,2013-03-12 00:58:00,
2013-03-11 18:03:00,69.5,45.9,30.11,West,270,6.3,6.3,43,0.00,,,0.00,WUHU216HW,2013-03-12 01:03:00,
2013-03-11 18:08:00,69.5,45.4,30.11,West,270,4.3,6.3,42,0.00,,,0.00,WUHU216HW,2013-03-12 01:08:00,
2013-03-11 18:13:00,69.5,45.4,30.11,West,270,2.0,6.3,42,0.00,,,0.00,WUHU216HW,2013-03-12 01:13:00,
2013-03-11 18:18:00,69.5,45.9,30.11,NW,315,4.7,5.4,43,0.00,,,0.00,WUHU216HW,2013-03-12 01:18:00,
2013-03-11 18:23:00,69.3,45.7,30.11,West,270,5.1,5.1,43,0.00,,,0.00,WUHU216HW,2013-03-12 01:23:00,
2013-03-11 18:28:00,69.3,45.7,30.11,NW,315,2.5,5.1,43,0.00,,,0.00,WUHU216HW,2013-03-12 01:28:00,
2013-03-11 18:33:00,69.1,45.6,30.11,SW,225,1.8,5.1,43,0.00,,,0.00,WUHU216HW,2013-03-12 01:33:00,
2013-03-11 18:38:00,69.1,45.6,30.11,West,270,1.3,3.6,43,0.00,,,0.00,WUHU216HW,2013-03-12 01:38:00,
2013-03-11 18:43:00,69.1,45.6,30.11,West,270,2.5,2.5,43,0.00,,,0.00,WUHU216HW,2013-03-12 01:43:00,
2013-03-11 18:48:00,68.8,45.3,30.11,WSW,248,3.4,3.4,43,0.00,,,0.00,WUHU216HW,2013-03-12 01:48:00,
2013-03-11 18:53:00,68.8,44.6,30.11,West,270,1.1,3.4,42,0.00,,,0.00,WUHU216HW,2013-03-12 01:53:00,
2013-03-11 18:58:00,68.4,44.9,30.11,West,270,2.5,2.5,43,0.00,,,0.00,WUHU216HW,2013-03-12 01:58:00,
2013-03-11 19:03:00,68.2,45.4,30.11,NW,315,1.3,2.7,44,0.00,,,0.00,WUHU216HW,2013-03-12 02:03:00,
2013-03-11 19:08:00,68.0,44.7,30.11,North,0,3.1,3.1,43,0.00,,,0.00,WUHU216HW,2013-03-12 02:08:00,
2013-03-11 19:13:00,67.5,44.1,30.11,NW,315,0.9,3.8,43,0.00,,,0.00,WUHU216HW,2013-03-12 02:13:00,
2013-03-11 19:18:00,67.1,44.4,30.11,NNW,338,1.8,3.8,44,0.00,,,0.00,WUHU216HW,2013-03-12 02:18:00,
2013-03-11 19:23:00,67.0,44.3,30.11,North,0,2.9,2.9,44,0.00,,,0.00,WUHU216HW,2013-03-12 02:23:00,
2013-03-11 19:28:00,66.6,43.9,30.11,NW,315,2.5,3.4,44,0.00,,,0.00,WUHU216HW,2013-03-12 02:28:00,
2013-03-11 19:33:00,66.2,43.6,30.10,West,270,2.0,3.4,44,0.00,,,0.00,WUHU216HW,2013-03-12 02:33:00,
2013-03-11 19:38:00,66.1,44.0,30.10,North,0,0.0,3.4,45,0.00,,,0.00,WUHU216HW,2013-03-12 02:38:00,
2013-03-11 19:43:00,66.1,44.0,30.10,West,270,0.9,2.0,45,0.00,,,0.00,WUHU216HW,2013-03-12 02:43:00,
2013-03-11 19:48:00,65.9,43.8,30.10,WNW,293,2.0,2.7,45,0.00,,,0.00,WUHU216HW,2013-03-12 02:48:00,
2013-03-11 19:53:00,65.3,43.4,30.11,NNW,338,1.1,3.1,45,0.00,,,0.00,WUHU216HW,2013-03-12 02:53:00,
2013-03-11 19:58:00,65.0,43.6,30.10,NE,45,0.0,3.1,46,0.00,,,0.00,WUHU216HW,2013-03-12 02:58:00,
2013-03-11 20:03:00,65.0,43.6,30.10,ENE,68,1.3,1.3,46,0.00,,,0.00,WUHU216HW,2013-03-12 03:03:00,
2013-03-11 20:08:00,64.8,44.0,30.10,ENE,68,0.0,1.3,47,0.00,,,0.00,WUHU216HW,2013-03-12 03:08:00,
2013-03-11 20:13:00,64.8,44.0,30.10,ENE,68,0.0,1.3,47,0.00,,,0.00,WUHU216HW,2013-03-12 03:13:00,
2013-03-11 20:18:00,64.4,44.2,30.10,ENE,68,0.0,1.1,48,0.00,,,0.00,WUHU216HW,2013-03-12 03:18:00,
2013-03-11 20:23:00,64.4,44.2,30.10,NW,315,0.4,1.1,48,0.00,,,0.00,WUHU216HW,2013-03-12 03:23:00,
2013-03-11 20:28:00,64.1,44.5,30.10,NNW,338,0.7,0.9,49,0.00,,,0.00,WUHU216HW,2013-03-12 03:28:00,
2013-03-11 20:33:00,63.7,44.1,30.11,NW,315,1.1,1.1,49,0.00,,,0.00,WUHU216HW,2013-03-12 03:33:00,
2013-03-11 20:38:00,63.5,44.0,30.11,WNW,293,0.4,1.1,49,0.00,,,0.00,WUHU216HW,2013-03-12 03:38:00,
2013-03-11 20:43:00,63.0,43.5,30.11,WNW,293,1.1,1.1,49,0.00,,,0.00,WUHU216HW,2013-03-12 03:43:00,
2013-03-11 20:48:00,62.8,43.9,30.11,NNW,338,0.7,1.1,50,0.00,,,0.00,WUHU216HW,2013-03-12 03:48:00,
2013-03-11 20:53:00,62.6,43.7,30.11,WNW,293,1.3,1.3,50,0.00,,,0.00,WUHU216HW,2013-03-12 03:53:00,
2013-03-11 20:58:00,62.3,43.4,30.11,WNW,293,1.3,1.6,50,0.00,,,0.00,WUHU216HW,2013-03-12 03:58:00,
2013-03-11 21:03:00,62.3,43.4,30.11,North,0,0.0,1.6,50,0.00,,,0.00,WUHU216HW,2013-03-12 04:03:00,
2013-03-11 21:08:00,62.1,43.3,30.11,West,270,1.8,2.7,50,0.00,,,0.00,WUHU216HW,2013-03-12 04:08:00,
2013-03-11 21:13:00,61.7,43.4,30.11,NW,315,1.1,2.7,51,0.00,,,0.00,WUHU216HW,2013-03-12 04:13:00,
2013-03-11 21:18:00,61.2,43.9,30.12,West,270,1.8,2.7,53,0.00,,,0.00,WUHU216HW,2013-03-12 04:18:00,
2013-03-11 21:23:00,60.8,44.6,30.12,WNW,293,4.0,4.0,55,0.00,,,0.00,WUHU216HW,2013-03-12 04:23:00,
2013-03-11 21:28:00,60.5,44.7,30.12,WNW,293,2.5,4.0,56,0.00,,,0.00,WUHU216HW,2013-03-12 04:28:00,
2013-03-11 21:33:00,60.1,44.4,30.12,WNW,293,0.4,3.1,56,0.00,,,0.00,WUHU216HW,2013-03-12 04:33:00,
2013-03-11 21:38:00,60.1,44.4,30.12,NW,315,0.0,1.8,56,0.00,,,0.00,WUHU216HW,2013-03-12 04:38:00,
2013-03-11 21:43:00,60.1,44.4,30.12,North,0,0.0,0.9,56,0.00,,,0.00,WUHU216HW,2013-03-12 04:43:00,
2013-03-11 21:48:00,60.1,44.4,30.12,NNW,338,0.0,0.9,56,0.00,,,0.00,WUHU216HW,2013-03-12 04:48:00,
2013-03-11 21:53:00,60.1,44.8,30.12,NE,45,1.8,1.8,57,0.00,,,0.00,WUHU216HW,2013-03-12 04:53:00,
2013-03-11 21:59:00,59.9,45.1,30.12,ESE,113,1.3,1.8,58,0.00,,,0.00,WUHU216HW,2013-03-12 04:59:00,
2013-03-11 22:04:00,59.8,44.9,30.12,SE,135,1.1,1.8,58,0.00,,,0.00,WUHU216HW,2013-03-12 05:04:00,
2013-03-11 22:09:00,59.4,44.7,30.12,SE,135,0.0,1.1,58,0.00,,,0.00,WUHU216HW,2013-03-12 05:09:00,
2013-03-11 22:14:00,59.4,44.7,30.12,SE,135,0.9,0.9,58,0.00,,,0.00,WUHU216HW,2013-03-12 05:14:00,
2013-03-11 22:19:00,59.2,44.5,30.12,SE,135,0.0,1.1,58,0.00,,,0.00,WUHU216HW,2013-03-12 05:19:00,
2013-03-11 22:24:00,58.9,44.1,30.12,NNW,338,0.9,1.1,58,0.00,,,0.00,WUHU216HW,2013-03-12 05:24:00,
2013-03-11 22:29:00,58.5,43.7,30.13,NNW,338,0.7,0.9,58,0.00,,,0.00,WUHU216HW,2013-03-12 05:29:00,
2013-03-11 22:34:00,58.3,43.6,30.13,NW,315,0.4,1.3,58,0.00,,,0.00,WUHU216HW,2013-03-12 05:34:00,
2013-03-11 22:39:00,58.0,43.3,30.12,NW,315,0.9,1.8,58,0.00,,,0.00,WUHU216HW,2013-03-12 05:39:00,
2013-03-11 22:44:00,58.0,43.7,30.13,NE,45,0.9,1.8,59,0.00,,,0.00,WUHU216HW,2013-03-12 05:44:00,
2013-03-11 22:49:00,57.6,43.4,30.13,NNE,23,0.0,0.9,59,0.00,,,0.00,WUHU216HW,2013-03-12 05:49:00,
2013-03-11 22:54:00,57.4,43.8,30.13,NNE,23,0.0,0.9,60,0.00,,,0.00,WUHU216HW,2013-03-12 05:54:00,
2013-03-11 22:59:00,57.2,43.6,30.12,NNE,23,0.4,0.4,60,0.00,,,0.00,WUHU216HW,2013-03-12 05:59:00,
2013-03-11 23:04:00,57.2,43.6,30.12,SE,135,0.2,0.7,60,0.00,,,0.00,WUHU216HW,2013-03-12 06:04:00,
2013-03-11 23:09:00,57.1,43.4,30.12,SE,135,0.0,0.7,60,0.00,,,0.00,WUHU216HW,2013-03-12 06:09:00,
2013-03-11 23:14:00,57.1,43.4,30.12,ESE,113,0.0,0.0,60,0.00,,,0.00,WUHU216HW,2013-03-12 06:14:00,
2013-03-11 23:19:00,56.9,43.6,30.12,ESE,113,0.4,0.7,61,0.00,,,0.00,WUHU216HW,2013-03-12 06:19:00,
2013-03-11 23:24:00,56.7,43.4,30.12,ESE,113,0.0,0.7,61,0.00,,,0.00,WUHU216HW,2013-03-12 06:24:00,
2013-03-11 23:29:00,56.5,43.2,30.12,ESE,113,0.0,0.4,61,0.00,,,0.00,WUHU216HW,2013-03-12 06:29:00,
2013-03-11 23:34:00,56.3,43.0,30.12,ESE,113,0.0,0.0,61,0.00,,,0.00,WUHU216HW,2013-03-12 06:34:00,
2013-03-11 23:39:00,56.2,43.3,30.12,ESE,113,0.2,0.4,62,0.00,,,0.00,WUHU216HW,2013-03-12 06:39:00,
2013-03-11 23:44:00,56.0,43.1,30.12,ESE,113,0.0,0.4,62,0.00,,,0.00,WUHU216HW,2013-03-12 06:44:00,
2013-03-11 23:49:00,55.8,42.9,30.12,ESE,113,0.0,0.0,62,0.00,,,0.00,WUHU216HW,2013-03-12 06:49:00,
2013-03-11 23:54:00,55.6,42.8,30.12,ESE,113,0.2,0.4,62,0.00,,,0.00,WUHU216HW,2013-03-12 06:54:00,
2013-03-11 23:59:00,55.3,42.9,30.13,ESE,113,0.0,0.4,63,0.00,,,0.00,WUHU216HW,2013-03-12 06:59:00,